Regional Weather Roundup
Issued by NWS

Home | Current Version | Previous Version | Graphics & Text | Print | Product List | Glossary On
Versions: 1 2 3 4 5 6 7 8 9 10 11 12 13 14 15 16 17 18 19 20 21 22 23 24 25 26 27 28 29 30 31 32 33 34 35 36 37 38 39 40 41 42 43 44 45 46 47 48 49 50
000
ASUS43 KMKX 260400
RWRWI

WISCONSIN REGIONAL WEATHER ROUNDUP
NATIONAL WEATHER SERVICE MILWAUKEE/SULLIVAN WI
1000 PM CST SUN JAN 25 2015

NOTE: "FAIR" INDICATES FEW OR NO CLOUDS BELOW 12,000 FEET WITH NO
SIGNIFICANT WEATHER AND/OR OBSTRUCTIONS TO VISIBILITY.

WIZ001-002-006>008-014>016-023>028-260500-
NORTHWEST WISCONSIN

CITY           SKY/WX    TMP DP  RH WIND       PRES   REMARKS
SUPERIOR ARPT  MOCLDY    15  11  83 CALM      30.00F
ASHLAND        PTCLDY     8   6  92 SW3       30.00F
HAYWARD        PTCLDY     8   3  80 CALM      29.97F
SIREN          PTCLDY    19  11  69 S6        29.99F WCI  11
CUMBERLAND     MOCLDY    14   9  79 S3        29.99S
RICE LAKE      MOCLDY    17  11  75 CALM      30.01F
CHETEK         MOCLDY    15  10  82 CALM      30.01F
LADYSMITH      MOCLDY    16   9  73 CALM      30.02F
EAU CLAIRE     NOT AVBL
MENOMONIE      MOCLDY    19  14  79 CALM      30.03F
NEW RICHMOND   PTCLDY    17  11  80 S3        30.01F
OSCEOLA        PTCLDY    20  13  73 S3        30.04F
$$

WIZ003>005-009-010-017-018-260500-
NORTH CENTRAL WISCONSIN

CITY           SKY/WX    TMP DP  RH WIND       PRES   REMARKS
MANITOWISH WTR MOCLDY     5   2  89 SE3       29.95F
ARBOR VITAE    MOCLDY    11   7  82 CALM      29.96F
WOODRUFF       MOCLDY    11   7  82 CALM      29.96F
RHINELANDER    PTCLDY    10   3  73 CALM      29.97F
EAGLE RIVER    PTCLDY     4   0  83 CALM      29.96F
LAND O LAKES   PTCLDY     0  -3  86 CALM      29.96F
PHILLIPS       PTCLDY     8   5  86 CALM      29.97F
TOMAHAWK       PTCLDY     9   4  81 CALM      29.98F
MEDFORD        MOCLDY    10   6  83 CALM      29.99F
MERRILL        PTCLDY    12   7  79 CALM      30.00F
$$

WIZ029-030-035-036-043>047-260500-
CENTRAL WISCONSIN

CITY           SKY/WX    TMP DP  RH WIND       PRES   REMARKS
WAUSAU         PTCLDY    14   5  67 SE6       30.00F WCI   5
MOSINEE        CLEAR     14   7  73 SE5       30.03S WCI   6
MARSHFIELD     MOCLDY    15   7  70 S6        30.01F WCI   6
STEVENS POINT  PTCLDY    12   6  76 CALM      30.04F
WAUPACA        CLOUDY    18  10  68 E3        30.07F
WAUTOMA        NOT AVBL
WISC RAPIDS    MOCLDY    14   6  70 CALM      30.06F
CAMP DOUGLAS   NOT AVBL
$$

WIZ011>013-019>022-031-037>040-048>050-260500-
NORTHEAST WISCONSIN

CITY           SKY/WX    TMP DP  RH WIND       PRES   REMARKS
ANTIGO         PTCLDY    10   3  73 S5        30.00F WCI   2
SHAWANO        CLOUDY    17   9  71 CALM      30.07F
OCONTO         CLOUDY    12   9  86 MISG      30.08F
STURGEON BAY   PTCLDY    12   7  79 CALM      30.07F
GREEN BAY      CLOUDY    16   9  74 N5        30.06F WCI   9
MANITOWOC      NOT AVBL
APPLETON       MOCLDY    18   5  57 NE5       30.07S WCI  11
CLINTONVILLE   CLOUDY    18   9  68 CALM      30.06F
OSHKOSH        CLOUDY    18   6  59 NE9       30.04F WCI   7
$$

WIZ032>034-041-042-053>061-260500-
SOUTHWEST WISCONSIN

CITY           SKY/WX    TMP DP  RH WIND       PRES   REMARKS
LA CROSSE      CLOUDY    24  14  65 SE6       30.04F WCI  17
SPARTA         CLOUDY    20  11  68 CALM      30.06F
VIROQUA        CLOUDY    20  12  72 E3        30.02F
BOSCOBEL       MOCLDY    21  15  78 CALM      30.07F
PRAIRIE DU CHI PTCLDY    18  13  80 CALM      30.08F
PLATTEVILLE    CLOUDY    19  13  80 CALM      30.04F
$$

WIZ056-057-062-063-064-067-068-260500-
SOUTH CENTRAL WISCONSIN

CITY           SKY/WX    TMP DP  RH WIND       PRES   REMARKS
REEDSBURG      PTCLDY    17  10  72 CALM      30.05F
BARABOO/DELLS  PTCLDY    16  10  75 CALM      30.05F
LONE ROCK      NOT AVBL
MINERAL POINT  CLOUDY    19  14  79 CALM      30.02F
MADISON        MOCLDY    18  11  74 NE6       30.04F WCI  10
MIDDLETON      CLOUDY    19  12  73 NE8       30.06S WCI   9
WATERTOWN      CLOUDY    15  11  84 N5        30.04F WCI   8
MONROE         CLOUDY    18  14  86 N13       30.01F WCI   4
JANESVILLE     PTCLDY    18  12  79 N6        30.04R WCI   9
$$

WIZ051-052-058>065-066-070>072-260500-
SOUTHEAST WISCONSIN

CITY           SKY/WX    TMP DP  RH WIND       PRES   REMARKS
MILWAUKEE      MOCLDY    25  12  58 NE13      30.02S WCI  14
WAUKESHA       CLEAR     16  10  79 N5        30.02F WCI   9
MILWAUKEE/TIMM PTCLDY    19  12  73 N7        30.03F WCI  10
RACINE         CLOUDY    25  14  63 NE12      30.02S WCI  14
BURLINGTON     CLEAR     16  11  82 N7        30.02R WCI   6
KENOSHA        CLEAR     21  14  74 N6        30.00S WCI  13
FOND DU LAC    CLOUDY    17   8  67 N7        30.05F WCI   8
SHEBOYGAN      CLOUDY    17  10  74 N8        30.03F WCI   7
WEST BEND      CLOUDY    18  10  73 N6        30.03S WCI   9
JUNEAU         CLOUDY    15  11  82 N7        30.05F WCI   5
$$

LSZ147-162-260500-
LAKE SUPERIOR

STATION/POSITION TIME  TEMP    WIND        PRES    WAVE
                       AIR SEA DIR/SP/G            HT/PER
                 (UTC) (F)     (DEG/KT/KT) (MB)    (FT/S)
DEVILS ISLAND    0300   20     160/  3/  4 1017.7F
PORT WING        0340   16     130/  1/  6 1015.9F
SAXON HARBOR     0300   11        CALM     1016.6F
$$

LMZ867-665-643>646-260500-
LAKE MICHIGAN

STATION/POSITION TIME  TEMP    WIND        PRES    WAVE
                       AIR SEA DIR/SP/G            HT/PER
                 (UTC) (F)     (DEG/KT/KT) (MB)    (FT/S)
NORTHPORT PIER   0311   18      20/  8/ 11 1019.3S
SISTER BAY       0313    8        CALM       N/A
KEWAUNEE LAKESHO 0300   18     350/  6/ 11 1017.8R
SHEBOYGAN LAKESH 0300   24      30/ 16/ 18 1018.9F
PORT WASHINGTON  0300   21     340/  7/ 10 1018.3S
MILWAUKEE LAKESH 0300   27      40/ 15/ 17   N/A
KENOSHA   LAKESH 0300   27      50/ 15/ 19 1015.9F
$$

TC  - TEMPERATURE IN CELSIUS
VSB - VISIBILITY IN STATUTE MILES
WCI - WIND CHILL INDEX
HX  - HEAT INDEX




USA.gov is the U.S. government's official web portal to all federal, state and local government web resources and services.